Tracking 31027 objects as of 19-Jul-2025
HD Live streaming from Space Station
objects crossing your sky now

FENGYUN 1C DEB

Track FENGYUN 1C DEB now!
10-day predictions


NORAD ID: 37044
Int'l Code: 1999-025EEC
Perigee: 630.8 km
Apogee: 1,393.4 km
Inclination: 99.0 °
Period: 105.2 minutes
Semi major axis: 7383 km
RCS: 0.0003 m2 (small)
Launch date: May 10, 1999
Source: People's Republic of China (PRC)
Launch site: Taiyaun Space Center, China (TSC)

Note: This is SATELLITE DEBRIS
Your satellite tracking list
SL-12 R/B(2)
Track 1 satellite(s)




NASA's NSSDC Master Catalog

Two Line Element Set (TLE):
1 37044U 99025EEC 25196.16391825  .00005375  00000-0  24661-2 0  9992
2 37044  98.9587 311.9957 0516445 198.9157 159.2162 13.68508411817971
Source of the keplerian elements: AFSPC